Temperature
22 22 22 21 21 21 21 21 20 21 21 21 21 20 20 19 18 17 16 16 15 15 14 14 13 13 13 12 12 12 11 11 11 11 11 11 11 11 11 11 11 11 11 11
21 22 21 21 21 21 21 21 21 20 20 21 21 20 19 19 18 17 16 15 15 14 14 13 13 13 12 12 11 11 11 11 11 11 11 11 10 10 10 10 10 10 10 10
20 21 21 20 21 21 21 21 20 20 20 20 20 19 19 18 17 16 16 15 15 14 14 13 13 12 12 11 11 11 10 10 10 10 10 10 10 10 10 10 10 10 10 10
19 19 18 20 21 21 20 20 20 20 20 20 19 19 18 17 17 16 15 15 14 14 13 13 12 12 12 11 11 11 10 10 10 10 10 10 9 9 9 9 9 9 10 10
18 18 19 20 21 20 19 19 20 20 19 19 18 18 17 17 16 15 15 14 14 13 13 12 12 12 11 11 11 10 10 9 9 9 9 9 9 9 9 9 9 9 9 9
18 17 17 19 20 20 19 18 19 19 19 18 18 16 16 16 15 15 14 14 13 13 12 12 11 11 11 11 10 10 9 9 9 9 9 9 8 8 8 8 9 9 8 9
17 17 18 19 19 19 17 17 18 18 18 17 17 16 16 15 15 14 14 13 13 12 12 11 11 11 10 10 10 10 9 9 9 8 8 8 8 8 8 8 8 8 8 8
17 16 17 18 18 18 17 18 17 17 17 16 16 15 15 14 14 13 13 12 12 12 11 11 10 10 10 10 9 9 9 9 8 8 8 8 7 7 7 7 8 8 8 8
17 17 17 18 18 17 17 17 16 16 16 15 15 14 14 13 13 12 12 12 11 11 11 10 10 10 10 9 9 9 8 8 8 7 7 7 7 7 7 7 7 7 7 7
17 17 18 17 17 16 16 15 15 15 15 14 14 13 13 12 12 12 11 11 11 10 10 10 9 9 9 9 8 8 8 8 7 7 7 7 7 7 7 6 6 6 6 6
16 17 17 17 16 16 15 15 15 14 14 14 13 13 12 12 11 11 11 10 10 10 10 9 9 9 9 8 8 8 7 7 7 7 7 7 6 6 6 6 6 6 6 6
15 16 16 16 15 15 14 14 14 13 13 13 13 12 12 11 11 10 10 10 9 9 9 9 8 8 8 8 8 7 7 7 7 6 6 6 6 6 6 5 5 5 5 5
15 15 15 14 14 14 14 13 13 13 13 12 12 11 11 10 10 9 9 9 9 8 8 8 8 8 8 8 7 7 7 7 6 6 6 6 6 5 5 5 5 5 5 5
14 14 14 14 13 13 13 13 13 12 12 12 11 11 10 10 9 9 9 8 8 8 8 7 7 7 7 7 7 7 6 6 6 6 6 5 5 5 5 5 5 4 4 4
13 13 13 13 13 13 12 12 12 12 11 11 10 10 9 9 9 8 8 8 7 7 7 7 7 7 7 7 6 6 6 6 6 5 5 5 5 5 4 4 4 4 4 4
13 13 12 12 12 12 12 11 11 11 10 10 9 9 9 8 8 8 7 7 7 7 7 6 6 6 6 6 6 6 5 5 5 5 5 5 4 4 4 4 4 4 4 4
12 12 12 12 11 11 11 11 10 10 10 9 9 8 8 8 7 7 7 7 6 6 6 6 6 6 5 5 5 5 5 5 5 5 4 4 4 4 4 4 3 3 3 3
12 12 11 11 11 11 10 10 10 9 9 9 8 8 7 7 7 7 7 6 6 6 6 5 5 5 5 5 5 5 5 5 4 4 4 4 4 3 3 3 3 3 3 3
11 11 11 11 11 10 10 10 9 9 8 8 8 7 7 7 7 6 6 6 6 5 5 5 5 5 5 5 5 4 4 4 4 4 4 3 3 3 3 3 3 3 2 2
11 11 11 10 10 10 10 9 9 8 8 8 7 7 7 6 6 6 6 6 5 5 5 5 5 5 4 4 4 4 4 4 4 3 3 3 3 3 2 2 2 2 2 2
10 10 10 10 9 9 9 9 8 8 8 7 7 7 6 6 6 6 5 5 5 5 5 4 4 4 4 4 4 4 3 3 3 3 3 3 2 2 2 2 2 2 2 2
10 9 9 9 9 9 8 8 8 8 7 7 7 6 6 6 5 5 5 5 4 4 4 4 4 4 4 4 3 3 3 3 3 2 2 2 2 2 2 2 2 2 2 2
9 9 9 8 8 8 8 8 7 7 7 6 6 6 6 5 5 5 4 4 4 4 4 3 3 3 3 3 3 3 3 2 2 2 2 2 2 2 1 1 1 1 1 2
8 8 8 8 8 8 7 7 7 6 6 6 6 5 5 5 5 4 4 4 3 3 3 3 3 3 3 3 2 2 2 2 2 2 1 1 1 1 1 1 1 1 1 1
8 8 7 7 7 7 7 6 6 6 6 5 5 5 5 5 4 4 4 3 3 3 3 3 2 2 2 2 2 2 1 1 1 1 1 1 1 1 1 1 1 1 1 1
7 7 7 7 6 6 6 6 5 5 5 5 5 4 4 4 4 3 3 3 3 2 2 2 2 2 2 1 1 1 1 1 1 1 1 1 1 1 1 1 1 1 1 1
7 6 6 6 6 6 5 5 5 5 5 5 4 4 4 4 3 3 3 2 2 2 2 2 2 1 1 1 1 1 1 1 1 1 1 0 0 0 0 0 0 0 0 0
Wind_Speed
10 10 9 9 9 9 10 10 10 9 8 5 2 0 2 3 4 4 4 3 3 2 2 1 0 1 1 1 1 1 1 1 2 2 1 2 2 2 2 2 2 1 2 2
11 11 10 12 11 10 10 10 11 11 9 4 2 1 1 1 2 2 2 3 3 3 2 1 1 0 1 1 0 1 1 1 2 2 2 2 2 2 2 2 2 1 1 1
9 9 10 11 8 8 8 7 7 8 5 3 3 2 0 0 0 2 2 2 2 2 2 2 1 1 1 1 1 0 1 1 1 2 3 2 2 2 2 2 2 1 1 1
7 8 9 3 0 1 2 4 5 5 4 3 2 2 2 2 1 1 1 1 2 2 2 1 1 1 1 1 1 0 1 1 1 2 2 3 2 2 1 2 2 2 1 1
6 7 8 5 1 2 3 4 4 3 3 3 3 2 0 1 1 1 1 1 1 1 1 1 1 1 1 1 0 0 1 1 1 2 2 3 3 3 2 2 2 2 2 1
7 7 5 1 3 2 3 3 2 3 3 3 2 3 1 2 2 2 2 1 1 1 1 1 0 1 1 0 0 0 0 1 1 2 2 2 3 3 3 2 2 2 2 1
9 8 5 2 2 1 2 1 3 4 3 3 3 2 2 3 2 2 1 1 1 0 1 1 1 1 1 0 1 1 0 0 0 1 2 2 2 3 3 2 2 2 2 2
7 7 5 2 1 1 2 4 5 5 5 4 3 3 3 3 2 1 1 0 0 0 1 1 1 1 1 0 0 1 0 0 0 1 2 1 1 2 2 2 2 2 2 2
3 2 0 1 1 3 4 5 5 5 4 4 3 2 2 2 1 1 0 1 1 1 1 1 1 1 1 0 0 0 1 1 1 1 0 0 0 1 2 2 1 1 1 2
5 4 4 2 2 3 3 5 5 5 5 5 3 2 2 2 2 1 1 1 1 1 1 1 2 1 1 1 1 1 2 2 2 1 1 1 0 0 1 1 2 2 2 2
7 6 5 3 2 3 3 4 4 4 4 4 3 3 3 3 2 1 1 1 1 1 1 1 1 1 1 1 1 2 2 2 2 1 1 1 0 0 0 1 1 1 2 1
6 5 5 4 4 4 4 4 4 4 4 4 3 3 3 2 1 1 1 1 1 1 2 1 1 1 1 1 1 2 2 2 1 0 1 1 1 0 1 1 1 2 2 2
5 4 4 4 4 4 5 5 5 4 4 4 3 2 2 1 1 1 2 1 1 2 2 1 1 1 1 1 1 1 1 1 1 1 1 1 1 1 1 1 2 2 1 1
4 3 4 4 4 4 5 5 4 3 3 2 2 2 2 1 1 1 2 1 1 1 1 1 1 1 1 1 1 1 1 1 1 1 1 1 2 2 2 2 1 2 2 2
5 4 5 4 4 4 4 4 4 4 3 2 2 2 2 1 2 2 2 1 1 1 2 2 2 1 1 1 1 1 1 1 1 1 1 1 1 2 2 1 1 1 1 1
4 4 3 4 4 4 3 3 4 4 2 2 2 2 2 2 2 2 1 1 2 2 2 2 2 1 1 1 1 1 1 2 2 1 1 2 2 2 1 1 1 1 1 1
4 4 4 4 4 4 4 3 3 3 2 2 2 2 2 2 1 1 2 2 2 2 2 2 2 2 2 1 1 1 1 2 2 2 2 2 2 2 1 1 1 2 1 1
4 4 4 4 4 4 3 2 2 3 2 2 2 2 1 2 2 2 2 1 1 1 1 2 1 1 1 1 1 1 1 1 2 1 1 1 2 1 1 1 1 1 1 1
3 4 4 3 3 3 2 2 2 2 2 2 2 2 2 3 3 2 2 2 2 2 2 2 1 1 2 2 2 1 2 2 1 1 1 1 2 1 1 1 1 1 1 1
3 3 3 3 2 2 2 1 1 2 2 2 2 2 2 2 2 2 1 1 1 1 2 1 1 1 1 2 2 1 1 2 2 1 1 1 2 2 1 1 1 1 2 2
2 2 3 2 2 2 2 1 1 1 1 2 2 2 2 2 1 1 1 1 1 1 1 1 1 1 1 1 1 1 1 1 1 1 2 2 2 2 2 2 2 2 2 2
2 2 2 2 2 2 2 1 1 1 1 2 2 2 1 1 1 1 1 1 1 1 1 0 1 1 1 1 1 1 1 1 1 1 1 1 1 2 2 2 2 2 2 2
1 1 2 2 2 2 2 1 1 1 1 2 1 1 1 1 1 1 1 1 0 1 0 1 1 1 1 0 1 1 1 1 1 1 1 1 1 1 2 2 2 2 2 2
1 1 1 2 2 1 2 2 1 0 1 2 1 1 1 1 1 0 0 1 1 1 0 1 1 1 0 0 1 1 1 1 1 1 1 1 1 1 2 2 2 2 2 2
1 1 1 1 1 1 1 1 1 1 1 1 1 1 0 0 0 1 0 0 0 0 0 1 1 1 1 1 1 1 2 2 1 1 1 1 1 2 2 2 2 2 2 2
1 1 1 1 1 1 1 1 1 1 1 1 1 1 0 1 1 0 0 0 0 1 0 1 1 1 1 1 2 2 1 2 2 1 1 1 1 1 2 2 3 3 2 2
1 1 1 1 1 0 1 1 1 1 1 1 1 1 0 0 0 0 1 0 0 0 1 1 1 1 1 1 1 2 2 2 1 1 1 1 1 1 2 2 2 2 3 3
Wind_Direction
284 290 290 284 278 265 254 257 265 277 291 296 316 97 135 135 137 144 157 153 151 159 160 161 176 178 120 113 48 1 54 16 336 331 331 339 345 344 350 346 344 346 336 319
278 276 276 276 271 261 261 264 267 274 283 314 327 16 71 111 143 155 163 170 161 173 177 180 180 142 122 113 94 18 38 26 350 329 342 344 338 343 349 349 341 324 329 348
276 281 281 269 266 256 253 265 276 275 286 325 316 321 334 95 129 189 189 175 172 179 184 192 193 187 170 172 187 120 47 14 7 350 348 341 331 342 339 342 334 341 331 359
275 279 264 271 302 300 278 278 283 290 311 321 334 28 70 83 54 179 173 158 163 167 181 179 178 178 182 185 162 134 73 6 7 355 345 340 333 328 338 331 318 323 307 323
265 268 272 265 272 315 292 288 305 309 331 3 14 353 145 76 48 27 69 107 139 168 157 136 163 217 194 183 170 147 62 9 352 351 342 344 342 336 335 314 314 318 309 318
258 264 269 339 47 10 295 260 24 1 340 347 331 298 300 40 31 31 46 47 68 126 118 129 172 245 234 208 220 271 31 1 6 350 339 343 342 339 328 314 307 307 311 312
250 257 264 3 29 346 275 11 25 2 347 333 312 327 360 6 1 38 48 38 53 123 137 137 180 247 266 233 294 330 359 359 20 327 330 353 345 334 328 327 324 321 323 333
242 245 247 42 16 309 359 8 357 357 355 349 349 17 23 15 11 39 60 68 99 76 109 148 177 224 262 237 23 13 4 264 278 290 313 341 348 333 332 318 305 311 344 349
258 248 216 308 303 9 10 352 351 346 349 342 330 347 349 346 342 313 248 224 169 178 193 191 194 213 245 210 129 318 255 243 256 253 249 280 316 324 328 325 337 331 342 342
270 265 280 295 7 14 352 335 343 343 340 333 321 315 307 291 282 269 254 280 261 203 213 217 202 214 213 173 235 256 251 251 245 244 232 218 198 330 354 344 343 337 330 334
267 269 280 270 308 316 323 323 327 326 324 318 304 291 283 275 263 256 258 226 260 244 227 234 223 199 176 171 222 257 258 259 256 221 219 179 158 289 216 274 250 292 304 301
267 294 299 311 339 335 324 315 308 307 310 306 297 289 288 285 275 266 251 241 237 256 255 249 260 248 193 181 211 249 265 272 265 224 191 180 182 355 13 256 300 290 276 285
287 313 316 322 324 318 306 300 299 298 298 301 309 307 303 304 282 262 258 237 225 235 241 252 275 285 267 211 212 242 259 273 261 242 228 227 222 208 260 333 338 322 280 275
309 308 297 299 302 305 304 300 296 297 304 308 327 327 312 319 331 289 281 269 251 231 244 243 250 270 298 295 243 251 242 265 278 242 236 239 232 232 219 226 269 297 292 272
287 289 289 303 308 314 313 309 303 301 309 329 340 329 322 314 291 282 290 291 258 238 239 244 254 264 279 296 261 266 266 239 244 253 257 257 250 253 247 252 262 282 321 314
286 289 291 295 294 297 300 297 296 299 314 328 324 317 308 292 282 286 300 245 230 233 226 226 241 252 235 235 238 248 250 252 260 244 246 248 242 240 234 240 258 263 268 274
267 270 269 276 284 289 291 294 304 308 300 302 302 299 295 284 273 268 268 256 246 240 222 222 239 251 241 228 238 245 251 247 264 262 239 239 247 244 228 219 246 262 262 266
265 272 273 276 279 281 283 289 300 300 294 288 297 287 266 253 253 252 252 259 258 260 256 250 260 263 230 224 231 234 239 228 236 242 239 244 255 254 236 221 240 271 283 282
264 278 284 289 296 301 309 299 294 303 303 286 272 263 251 244 244 243 242 249 246 250 266 278 265 226 226 229 234 225 235 229 226 239 235 234 245 253 251 229 234 257 266 262
262 281 290 295 300 298 302 306 302 303 302 294 285 277 272 273 270 256 226 231 241 265 273 263 231 227 226 230 237 221 219 213 210 219 220 217 227 233 238 245 245 246 254 253
259 268 274 280 288 289 280 272 240 256 286 287 276 272 267 273 285 273 236 259 290 320 306 265 234 245 230 218 196 217 215 218 212 208 211 223 229 236 249 259 259 253 254 263
274 283 285 289 291 288 284 274 255 265 271 273 278 285 276 262 263 268 255 256 274 310 354 267 275 323 357 91 173 214 229 233 225 218 216 223 231 242 253 263 265 262 255 260
272 273 279 281 287 296 304 291 255 262 276 276 272 283 288 279 240 224 279 307 276 275 291 221 291 317 25 65 238 236 241 245 237 230 223 224 236 249 259 265 271 278 273 265
284 271 270 279 283 289 299 308 310 293 303 307 300 288 272 267 273 296 321 323 328 316 237 239 254 258 161 282 273 264 256 250 244 243 239 232 238 249 263 271 277 281 275 274
282 276 282 291 290 290 299 318 326 325 298 291 307 323 334 8 307 319 328 246 274 316 262 244 240 243 218 251 260 271 273 266 266 267 257 262 251 250 256 264 267 267 263 262
293 301 314 317 335 337 307 292 277 274 280 285 304 327 16 37 17 359 4 11 200 274 275 229 236 234 233 253 262 267 275 280 276 274 289 292 281 278 271 268 267 263 256 261
308 320 329 336 330 294 278 271 269 268 265 265 299 313 353 39 55 346 339 328 248 273 261 240 222 233 256 274 280 280 280 287 278 253 252 261 278 281 276 278 274 273 271 262
Height
1493 1490 1490 1492 1493 1492 1495 1496 1501 1497 1495 1494 1493 1495 1496 1498 1501 1503 1505 1507 1508 1509 1510 1510 1511 1511 1511 1510 1510 1510 1509 1508 1508 1508 1508 1507 1507 1506 1505 1506 1506 1506 1506 1506
1495 1489 1489 1491 1489 1490 1491 1491 1493 1493 1494 1490 1492 1493 1495 1497 1499 1501 1503 1505 1506 1507 1508 1508 1509 1509 1509 1508 1508 1508 1508 1507 1506 1506 1505 1505 1504 1504 1503 1503 1503 1503 1503 1503
1499 1491 1490 1493 1486 1486 1488 1487 1489 1493 1492 1490 1491 1493 1494 1496 1498 1500 1501 1503 1504 1505 1505 1506 1506 1507 1507 1506 1506 1506 1505 1505 1504 1504 1503 1502 1502 1501 1501 1500 1500 1499 1501 1501
1499 1498 1505 1490 1481 1482 1485 1486 1487 1487 1488 1489 1491 1492 1494 1496 1497 1498 1499 1500 1501 1502 1503 1504 1504 1505 1505 1504 1504 1504 1503 1503 1502 1502 1501 1500 1500 1499 1499 1498 1498 1498 1498 1498
1500 1503 1496 1487 1482 1483 1486 1488 1486 1487 1487 1489 1490 1491 1493 1495 1496 1497 1498 1499 1499 1500 1501 1501 1502 1502 1502 1502 1502 1501 1501 1500 1500 1499 1498 1498 1497 1497 1496 1496 1496 1495 1495 1495
1499 1504 1502 1491 1484 1483 1486 1491 1487 1487 1488 1489 1490 1493 1494 1494 1495 1495 1496 1496 1497 1497 1498 1499 1499 1499 1500 1500 1499 1499 1498 1498 1497 1497 1496 1496 1495 1495 1495 1494 1493 1493 1493 1493
1500 1501 1493 1487 1484 1485 1495 1494 1488 1488 1489 1490 1490 1492 1493 1492 1493 1493 1493 1494 1494 1495 1495 1496 1496 1497 1497 1497 1497 1496 1496 1496 1495 1495 1494 1494 1493 1493 1492 1492 1491 1490 1490 1490
1495 1499 1497 1486 1485 1488 1490 1488 1488 1488 1489 1489 1490 1490 1490 1490 1491 1490 1491 1491 1492 1492 1493 1493 1494 1494 1494 1494 1494 1494 1493 1493 1493 1492 1492 1491 1491 1490 1490 1489 1489 1488 1488 1487
1489 1492 1487 1485 1486 1487 1487 1488 1488 1488 1488 1488 1488 1489 1489 1489 1489 1488 1488 1489 1489 1489 1490 1490 1491 1491 1491 1490 1490 1490 1490 1490 1490 1490 1489 1489 1489 1488 1487 1487 1486 1485 1485 1485
1485 1484 1484 1484 1485 1486 1487 1487 1487 1487 1487 1487 1487 1487 1487 1487 1487 1486 1486 1486 1486 1486 1486 1487 1488 1488 1488 1487 1487 1487 1487 1487 1487 1487 1487 1486 1486 1485 1485 1484 1484 1483 1483 1482
1483 1483 1484 1484 1485 1485 1485 1486 1486 1486 1486 1485 1485 1484 1484 1484 1484 1483 1483 1483 1483 1483 1483 1484 1484 1484 1484 1485 1484 1484 1484 1485 1485 1484 1484 1484 1483 1483 1482 1482 1481 1481 1480 1480
1483 1482 1482 1482 1483 1483 1483 1483 1483 1483 1483 1483 1482 1482 1481 1481 1481 1480 1480 1480 1479 1480 1480 1481 1481 1481 1481 1481 1481 1481 1481 1482 1481 1481 1481 1481 1480 1480 1479 1479 1479 1478 1478 1477
1480 1480 1481 1481 1481 1481 1481 1481 1481 1481 1481 1480 1479 1479 1479 1478 1478 1477 1477 1476 1476 1476 1477 1477 1478 1478 1478 1478 1478 1478 1478 1478 1478 1478 1478 1478 1478 1477 1476 1476 1476 1475 1475 1474
1478 1478 1478 1479 1479 1479 1479 1479 1478 1478 1478 1478 1477 1476 1476 1476 1475 1474 1474 1474 1474 1474 1474 1474 1474 1475 1475 1475 1475 1475 1475 1475 1475 1475 1475 1475 1474 1474 1474 1473 1472 1471 1472 1472
1476 1476 1476 1476 1476 1476 1476 1476 1476 1475 1475 1475 1474 1474 1473 1472 1472 1471 1471 1471 1471 1471 1471 1471 1471 1471 1472 1472 1472 1472 1472 1472 1471 1471 1471 1471 1471 1471 1471 1470 1470 1469 1469 1469
1474 1474 1474 1474 1474 1474 1474 1473 1473 1473 1472 1472 1471 1471 1470 1470 1469 1469 1468 1468 1467 1467 1467 1467 1467 1468 1468 1468 1468 1468 1468 1468 1468 1468 1468 1468 1468 1468 1468 1468 1467 1467 1466 1466
1471 1471 1471 1471 1471 1471 1471 1471 1471 1470 1470 1469 1468 1468 1467 1466 1466 1465 1465 1464 1464 1464 1464 1464 1464 1464 1464 1464 1465 1465 1465 1465 1465 1465 1465 1465 1465 1465 1465 1465 1464 1464 1464 1464
1468 1469 1469 1469 1468 1468 1468 1468 1468 1468 1467 1466 1465 1465 1464 1463 1462 1462 1462 1461 1461 1461 1461 1461 1461 1461 1461 1461 1461 1461 1461 1461 1461 1461 1461 1461 1461 1462 1462 1462 1461 1461 1461 1461
1465 1466 1466 1466 1466 1466 1465 1465 1465 1465 1464 1463 1462 1461 1461 1460 1460 1459 1459 1458 1458 1457 1458 1458 1458 1457 1457 1457 1457 1458 1458 1458 1458 1458 1458 1458 1458 1458 1458 1458 1458 1458 1458 1458
1463 1463 1463 1463 1463 1463 1463 1462 1462 1462 1462 1461 1460 1459 1458 1458 1457 1457 1456 1455 1455 1455 1455 1455 1454 1454 1454 1454 1454 1454 1454 1454 1454 1455 1455 1455 1455 1455 1455 1455 1455 1455 1455 1455
1460 1460 1460 1460 1460 1460 1460 1460 1459 1459 1458 1458 1457 1456 1456 1455 1455 1455 1454 1453 1453 1453 1452 1452 1452 1451 1451 1451 1451 1451 1451 1451 1451 1452 1452 1452 1452 1452 1452 1452 1452 1452 1451 1451
1458 1458 1458 1457 1457 1457 1457 1457 1456 1456 1456 1455 1455 1454 1453 1453 1452 1452 1451 1451 1450 1450 1450 1449 1449 1449 1448 1448 1447 1448 1448 1448 1448 1449 1449 1449 1449 1449 1449 1449 1448 1448 1448 1448
1455 1455 1455 1455 1454 1454 1454 1454 1454 1454 1453 1453 1452 1451 1451 1450 1450 1449 1449 1448 1448 1447 1447 1446 1446 1446 1446 1445 1445 1445 1445 1445 1445 1445 1446 1446 1446 1446 1445 1445 1445 1445 1444 1444
1453 1453 1453 1453 1452 1452 1452 1452 1452 1451 1451 1450 1450 1449 1449 1448 1447 1447 1446 1446 1445 1445 1444 1444 1443 1443 1442 1442 1442 1442 1442 1442 1442 1442 1442 1442 1442 1442 1442 1442 1441 1441 1441 1440
1451 1451 1451 1450 1450 1450 1449 1449 1449 1449 1449 1448 1448 1447 1447 1446 1445 1444 1444 1443 1443 1442 1441 1441 1441 1440 1440 1439 1439 1439 1439 1439 1439 1439 1439 1439 1439 1438 1438 1438 1438 1437 1437 1436
1449 1449 1449 1449 1448 1448 1447 1447 1447 1447 1446 1446 1445 1445 1444 1444 1443 1442 1442 1441 1440 1440 1439 1439 1438 1438 1437 1437 1436 1436 1436 1436 1436 1435 1435 1435 1435 1434 1434 1434 1433 1433 1432 1432
1447 1447 1446 1446 1446 1446 1445 1445 1445 1444 1444 1443 1443 1442 1442 1441 1441 1440 1439 1439 1438 1437 1437 1436 1436 1435 1435 1434 1434 1434 1433 1433 1433 1432 1431 1431 1431 1430 1430 1429 1429 1429 1428 1428